Location: Dehesa de la Cepeda
(40.6574°N, 4.3013°W)
Time: 19:28:37
(UTC+00:00)

Vanguard 2 Rocket - Pass Details

Date: 05 August 2021
Orbit: 556 x 3324 km, 32.9° (Epoch: 19 September)

Event Time Altitude Azimuth Distance (km) Brightness Sun altitude
Rises 10:40:35 0° 258° (WSW) 2,735 9.2 57.5°
Reaches altitude 10° 10:43:16 10° 237° (WSW) 1,926 8.6 57.9°
Maximum altitude 10:46:06 17° 194° (SSW) 1,667 8.7 58.3°
Drops below altitude 10° 10:49:29 10° 154° (SSE) 2,379 9.7 58.8°
Sets 10:53:22 0° 136° (SE) 3,728 10.5 59.3°
